Other Public Products
Issued by NWS Charleston, SC

Current Version | Previous Version | Graphics & Text | Print | Product List | Glossary On
Versions: 1 2 3 4 5 6 7 8 9 10 11 12 13 14 15 16 17 18 19 20 21 22 23 24 25 26 27 28 29 30 31 32 33 34 35 36 37 38 39 40 41 42 43 44 45 46 47 48 49 50
675 FPUS82 KCHS 260227 OPUCHS TEST...KCHS/KSAV Gateway Observations...TEST National Weather Service Charleston SC 1000 PM EDT TUE JUL 25 2017 NOTE: "fair" indicates few or no clouds below 12,000 feet with no significant weather and/or obstructions to visibility. SCZ050-WAZ558-NCZ071-TXZ119-213-PAZ071-DCZ001-FLZ074-172-MI076- NYZ176-178-MAZ016-IL014-TNZ027-NJZ106-GAZ044-MD014-260300- ...Gateway Observations for Charleston International... CITY SKY/WX TMP DP RH WIND PRES REMARKS Chas Airport CLOUDY 78 73 84 W5 30.07R Seattle SUNNY 83 48 29 N12 29.99F Charlotte MOCLDY 80 69 69 S7 30.11R Dallas DFW CLEAR 91 69 48 SE13 30.00R HX 96 Dallas Love CLEAR 90 70 51 SE15 30.01R HX 95 Philladelphia CLOUDY 71 65 81 E10 30.18R Wash National PTCLDY 75 62 64 N12 30.18R Baltimore PTCLDY 73 61 65 N6 30.17R Miami MOCLDY 86 77 74 E8 30.10R HX 97 Detroit PTCLDY 69 62 78 SE6 30.20S Newark CLOUDY 68 60 75 N9 30.20R Laguardia MOCLDY 69 60 73 NE9 30.21R J F K MOCLDY 68 60 75 NE8 30.21R Boston Logan CLEAR 61 53 75 CALM 30.21R Ft. Lauderdale MOCLDY 85 78 80 SE9 30.10R HX 96 Chicago O`Hare PTCLDY 74 56 53 S10 30.14R Chicago Midway PTCLDY 77 57 50 SE8 30.14R Houston Bush MOCLDY 86 76 71 S13 30.07R HX 96 Houston Hobby MOCLDY 84 73 69 SE10 30.08R HX 90 Nashville MOCLDY 82 73 74 CALM 30.09R Atlanta MOCLDY 78 71 79 CALM 30.11R $$ GAZ044-118-TXZ119-213-NCZ071-DCZ001-MDZ014-506-PAZ021-071-NJZ106- NYZ176-178-MAZ106-OHZ011-021-055-MIZ076-KYZ091-ILZ014-INZ047- MNZ060-ONZ431-260300- ...Gateway Observations for Savannah International... CITY SKY/WX TMP DP RH WIND PRES REMARKS Savannah Arpt CLOUDY 77 75 93 NW6 30.10R Atlanta MOCLDY 78 71 79 CALM 30.11R Charlotte MOCLDY 80 69 69 S7 30.11R Dallas DFW CLEAR 91 69 48 SE13 30.00R HX 96 Houston Bush MOCLDY 86 76 71 S13 30.07R HX 96 Wash National PTCLDY 75 62 64 N12 30.18R Wash Dulles PTCLDY 72 60 66 N7 30.18R Baltimore PTCLDY 73 61 65 N6 30.17R Philadelphia CLOUDY 71 65 81 E10 30.18R Newark CLOUDY 68 60 75 N9 30.20R Laguardia MOCLDY 69 60 73 NE9 30.21R J F K MOCLDY 68 60 75 NE8 30.21R Boston CLEAR 61 53 75 CALM 30.21R Pittsburg MOCLDY 67 61 81 CALM 30.21R Akron PTCLDY 67 57 70 NE10 30.23R Cleveland PTCLDY 71 57 61 E7 30.23S Cincinnati PTCLDY 72 63 73 E9 30.16F Columbus CLEAR 65 61 86 SE5 30.21R Detroit PTCLDY 69 62 78 SE6 30.20S Chicago O`Hare PTCLDY 74 56 53 S10 30.14R Minneapolis LGT RAIN 79 71 76 S24G33 29.90F Indianapolis PTCLDY 74 59 59 E6 30.15S Toronto Canada CLEAR 66 55 68 S3 30.22S $$

USA.gov is the U.S. government's official web portal to all federal, state and local government web resources and services.